When you browse on this site, cookies collect data to enhance your experience and personalize the content and advertising you see.
Visit our Privacy Policy to learn more. By continuing to use the site, you agree to this use of cookies and data.

Hourly Weather Belmopan

Today, 7 July, Tuesday

Time Temperature Precipitation Wind Pressure Humidity
00:00 +26°C° 0 mm 1 mps 753 mmHg 97%
01:00 +26°C° 0 mm 1 mps 752 mmHg 97%
02:00 +26°C° 0 mm 1 mps 752 mmHg 98%
03:00 +26°C° 0 mm 1 mps 752 mmHg 98%
04:00 +26°C° 0.1 mm 1 mps 752 mmHg 98%
05:00 +26°C° 0.1 mm 1 mps 752 mmHg 98%
06:00 +26°C° 0.1 mm 1 mps 752 mmHg 98%
07:00 +28°C° 0.1 mm 1 mps 752 mmHg 89%
08:00 +29°C° 0.1 mm 2 mps 753 mmHg 79%
09:00 +31°C° 0.1 mm 2 mps 754 mmHg 70%
10:00 +33°C° 0.1 mm 3 mps 753 mmHg 65%
11:00 +34°C° 0.1 mm 3 mps 753 mmHg 61%
12:00 +35°C° 0.1 mm 3 mps 753 mmHg 56%
13:00 +35°C° 0 mm 3 mps 753 mmHg 55%
14:00 +35°C° 0 mm 3 mps 752 mmHg 54%
15:00 +35°C° 0 mm 3 mps 752 mmHg 53%
16:00 +34°C° 0 mm 2 mps 751 mmHg 60%
17:00 +31°C° 0 mm 2 mps 751 mmHg 66%
18:00 +30°C° 0 mm 1 mps 751 mmHg 73%
19:00 +28°C° 0 mm 1 mps 752 mmHg 81%
20:00 +27°C° 0 mm 1 mps 752 mmHg 88%
21:00 +26°C° 0 mm 1 mps 753 mmHg 96%
22:00 +24°C° 0 mm 0 mps 753 mmHg 97%
23:00 +23°C° 0 mm 0 mps 753 mmHg 98%

Tomorrow, 8 July, Wednesday

Time Temperature Precipitation Wind Pressure Humidity
00:00 +23°C° 0 mm 0 mps 753 mmHg 99%
01:00 +23°C° 0 mm 0 mps 752 mmHg 98%
02:00 +23°C° 0 mm 0 mps 752 mmHg 98%
03:00 +23°C° 0 mm 0 mps 752 mmHg 98%
04:00 +23°C° 0.1 mm 0 mps 752 mmHg 98%
05:00 +23°C° 0.1 mm 0 mps 752 mmHg 98%
06:00 +23°C° 0.1 mm 0 mps 752 mmHg 98%
07:00 +27°C° 0.1 mm 1 mps 752 mmHg 89%
08:00 +29°C° 0.1 mm 1 mps 753 mmHg 79%
09:00 +31°C° 0.1 mm 2 mps 753 mmHg 70%
10:00 +32°C° 0 mm 2 mps 753 mmHg 63%
11:00 +35°C° 0 mm 2 mps 752 mmHg 55%
12:00 +36°C° 0 mm 3 mps 752 mmHg 48%
13:00 +36°C° 0 mm 3 mps 751 mmHg 48%
14:00 +36°C° 0 mm 3 mps 751 mmHg 48%
15:00 +35°C° 0 mm 3 mps 750 mmHg 48%
16:00 +34°C° 0 mm 2 mps 750 mmHg 57%
17:00 +31°C° 0 mm 2 mps 750 mmHg 66%
18:00 +29°C° 0 mm 2 mps 750 mmHg 74%
19:00 +28°C° 0 mm 1 mps 751 mmHg 82%
20:00 +27°C° 0 mm 1 mps 751 mmHg 90%
21:00 +25°C° 0 mm 1 mps 752 mmHg 98%
22:00 +25°C° 0 mm 1 mps 752 mmHg 98%
23:00 +23°C° 0 mm 0 mps 751 mmHg 98%

Day after tomorrow, 9 July, Thursday

Time Temperature Precipitation Wind Pressure Humidity
00:00 +23°C° 0 mm 0 mps 751 mmHg 99%
01:00 +23°C° 0 mm 0 mps 751 mmHg 99%
02:00 +23°C° 0 mm 0 mps 751 mmHg 99%
03:00 +23°C° 0 mm 0 mps 751 mmHg 99%
04:00 +23°C° 0 mm 0 mps 751 mmHg 99%
05:00 +23°C° 0 mm 0 mps 751 mmHg 98%
06:00 +23°C° 0 mm 0 mps 751 mmHg 98%
07:00 +25°C° 0 mm 0 mps 752 mmHg 88%
08:00 +29°C° 0 mm 1 mps 752 mmHg 77%
09:00 +31°C° 0 mm 1 mps 752 mmHg 66%
10:00 +34°C° 0 mm 2 mps 752 mmHg 60%
11:00 +35°C° 0 mm 2 mps 752 mmHg 54%
12:00 +36°C° 0 mm 2 mps 751 mmHg 48%
13:00 +36°C° 0 mm 2 mps 751 mmHg 47%
14:00 +36°C° 0 mm 3 mps 750 mmHg 46%
15:00 +36°C° 0 mm 3 mps 750 mmHg 46%
16:00 +35°C° 0 mm 3 mps 750 mmHg 54%
17:00 +32°C° 0 mm 2 mps 750 mmHg 62%
18:00 +30°C° 0 mm 2 mps 750 mmHg 70%
19:00 +29°C° 0 mm 2 mps 751 mmHg 79%
20:00 +27°C° 0 mm 1 mps 751 mmHg 87%
21:00 +25°C° 0 mm 1 mps 752 mmHg 96%
22:00 +25°C° 0 mm 1 mps 752 mmHg 97%
23:00 +25°C° 0 mm 1 mps 752 mmHg 98%

10 July, Friday

Time Temperature Precipitation Wind Pressure Humidity
00:00 +23°C° 0 mm 0 mps 752 mmHg 98%
01:00 +23°C° 0 mm 0 mps 752 mmHg 98%
02:00 +23°C° 0 mm 0 mps 751 mmHg 98%
03:00 +23°C° 0 mm 0 mps 751 mmHg 98%
04:00 +23°C° 0 mm 0 mps 751 mmHg 97%
05:00 +23°C° 0 mm 0 mps 751 mmHg 97%
06:00 +23°C° 0 mm 0 mps 752 mmHg 96%
07:00 +25°C° 0.3 mm 0 mps 752 mmHg 88%
08:00 +29°C° 0.3 mm 1 mps 753 mmHg 81%
09:00 +31°C° 0.3 mm 2 mps 753 mmHg 73%
10:00 +31°C° 1.5 mm 2 mps 753 mmHg 75%
11:00 +31°C° 1.5 mm 2 mps 752 mmHg 77%
12:00 +31°C° 1.5 mm 2 mps 752 mmHg 79%
13:00 +31°C° 1 mm 2 mps 752 mmHg 77%
14:00 +31°C° 1 mm 2 mps 751 mmHg 74%
15:00 +32°C° 1 mm 2 mps 751 mmHg 71%
16:00 +31°C° 0.3 mm 2 mps 751 mmHg 76%
17:00 +30°C° 0.3 mm 2 mps 751 mmHg 81%
18:00 +29°C° 0.3 mm 1 mps 751 mmHg 85%
19:00 +28°C° 0 mm 1 mps 752 mmHg 90%
20:00 +27°C° 0 mm 1 mps 752 mmHg 94%
21:00 +26°C° 0 mm 1 mps 753 mmHg 99%
22:00 +26°C° 0 mm 1 mps 753 mmHg 99%
23:00 +26°C° 0 mm 1 mps 752 mmHg 99%

11 July, Saturday

Time Temperature Precipitation Wind Pressure Humidity
00:00 +26°C° 0 mm 1 mps 752 mmHg 99%
01:00 +26°C° 0 mm 1 mps 752 mmHg 99%
02:00 +23°C° 0 mm 0 mps 752 mmHg 99%
03:00 +23°C° 0 mm 0 mps 751 mmHg 99%
04:00 +23°C° 0 mm 0 mps 752 mmHg 99%
05:00 +23°C° 0 mm 0 mps 752 mmHg 98%
06:00 +23°C° 0 mm 0 mps 752 mmHg 98%
07:00 +27°C° 0.2 mm 1 mps 752 mmHg 91%
08:00 +29°C° 0.2 mm 1 mps 753 mmHg 85%
09:00 +30°C° 0.2 mm 2 mps 753 mmHg 78%
10:00 +32°C° 0.1 mm 2 mps 753 mmHg 69%
11:00 +34°C° 0.1 mm 3 mps 753 mmHg 60%
12:00 +36°C° 0.1 mm 3 mps 752 mmHg 50%
13:00 +35°C° 0 mm 3 mps 752 mmHg 51%
14:00 +35°C° 0 mm 3 mps 751 mmHg 51%
15:00 +35°C° 0 mm 3 mps 751 mmHg 51%
16:00 +34°C° 0 mm 3 mps 751 mmHg 59%
17:00 +31°C° 0 mm 2 mps 751 mmHg 66%
18:00 +30°C° 0 mm 2 mps 751 mmHg 74%
19:00 +29°C° 0 mm 1 mps 752 mmHg 81%
20:00 +27°C° 0 mm 1 mps 752 mmHg 89%
21:00 +26°C° 0 mm 1 mps 752 mmHg 96%
22:00 +26°C° 0 mm 1 mps 752 mmHg 97%
23:00 +25°C° 0 mm 1 mps 753 mmHg 98%

12 July, Sunday

Time Temperature Precipitation Wind Pressure Humidity
00:00 +23°C° 0 mm 0 mps 753 mmHg 99%
01:00 +23°C° 0 mm 0 mps 752 mmHg 99%
02:00 +23°C° 0 mm 0 mps 752 mmHg 99%
03:00 +23°C° 0 mm 0 mps 751 mmHg 99%
04:00 +23°C° 0 mm 0 mps 752 mmHg 98%
05:00 +23°C° 0 mm 0 mps 752 mmHg 98%
06:00 +23°C° 0 mm 0 mps 752 mmHg 98%
07:00 +27°C° 0.1 mm 1 mps 752 mmHg 87%
08:00 +29°C° 0.1 mm 1 mps 752 mmHg 76%
09:00 +31°C° 0.1 mm 2 mps 753 mmHg 65%
10:00 +32°C° 0 mm 2 mps 753 mmHg 59%
11:00 +34°C° 0 mm 2 mps 752 mmHg 54%
12:00 +35°C° 0 mm 2 mps 752 mmHg 48%
13:00 +35°C° 0 mm 3 mps 752 mmHg 47%
14:00 +35°C° 0 mm 3 mps 751 mmHg 45%
15:00 +35°C° 0 mm 3 mps 751 mmHg 44%
16:00 +34°C° 0 mm 2 mps 751 mmHg 53%
17:00 +31°C° 0 mm 2 mps 751 mmHg 62%
18:00 +30°C° 0 mm 2 mps 751 mmHg 70%
19:00 +28°C° 0 mm 1 mps 752 mmHg 79%
20:00 +27°C° 0 mm 1 mps 752 mmHg 87%
21:00 +25°C° 0 mm 1 mps 753 mmHg 95%
22:00 +25°C° 0 mm 1 mps 753 mmHg 96%
23:00 +23°C° 0 mm 0 mps 753 mmHg 97%
Show more